Time,TemperatureF,DewpointF,PressureIn,WindDirection,WindDirectionDegrees,WindSpeedMPH,WindSpeedGustMPH,Humidity,HourlyPrecipIn,Conditions,Clouds,dailyrainin,SolarRadiationWatts/m^2,SoftwareType,DateUTC
2013-03-01 00:01:00,30.0,17.0,-100.00,North,7,2.0,5.0,58,0.00,,,0.00,0.000000,,2013-03-01 08:01:00,
2013-03-01 00:11:00,30.0,17.0,-100.00,North,7,2.0,5.0,58,0.00,,,0.00,0.000000,,2013-03-01 08:11:00,
2013-03-01 00:22:00,30.0,17.0,-100.00,North,7,2.0,5.0,58,0.00,,,0.00,0.000000,,2013-03-01 08:22:00,
2013-03-01 00:31:00,30.0,17.0,-100.00,North,7,2.0,5.0,58,0.00,,,0.00,0.000000,,2013-03-01 08:31:00,
2013-03-01 00:53:00,36.0,13.0,-100.00,NNE,13,1.0,8.0,39,0.00,,,0.00,0.000000,,2013-03-01 08:53:00,
2013-03-01 01:02:00,36.0,13.0,-100.00,NNE,13,1.0,8.0,39,0.00,,,0.00,0.000000,,2013-03-01 09:02:00,
2013-03-01 01:11:00,36.0,13.0,-100.00,NNE,13,1.0,8.0,39,0.00,,,0.00,0.000000,,2013-03-01 09:11:00,
2013-03-01 01:21:00,36.0,13.0,-100.00,NNE,13,1.0,8.0,39,0.00,,,0.00,0.000000,,2013-03-01 09:21:00,
2013-03-01 01:31:00,36.0,13.0,-100.00,NNE,13,1.0,8.0,39,0.00,,,0.00,0.000000,,2013-03-01 09:31:00,
2013-03-01 02:01:00,31.0,15.0,-100.00,NNE,18,0.0,7.0,51,0.00,,,0.00,0.000000,,2013-03-01 10:01:00,
2013-03-01 02:11:00,31.0,15.0,-100.00,NNE,18,0.0,7.0,51,0.00,,,0.00,0.000000,,2013-03-01 10:11:00,
2013-03-01 02:21:00,31.0,15.0,-100.00,NNE,18,0.0,7.0,51,0.00,,,0.00,0.000000,,2013-03-01 10:21:00,
2013-03-01 02:31:00,31.0,15.0,-100.00,NNE,18,0.0,7.0,51,0.00,,,0.00,0.000000,,2013-03-01 10:31:00,
2013-03-01 02:52:00,30.0,15.0,-100.00,North,2,0.0,3.0,54,0.00,,,0.00,0.000000,,2013-03-01 10:52:00,
2013-03-01 03:01:00,30.0,15.0,-100.00,North,2,0.0,3.0,54,0.00,,,0.00,0.000000,,2013-03-01 11:01:00,
2013-03-01 03:11:00,30.0,15.0,-100.00,North,2,0.0,3.0,54,0.00,,,0.00,0.000000,,2013-03-01 11:11:00,
2013-03-01 03:22:00,30.0,15.0,-100.00,North,2,0.0,3.0,54,0.00,,,0.00,0.000000,,2013-03-01 11:22:00,
2013-03-01 03:31:00,30.0,15.0,-100.00,North,2,0.0,3.0,54,0.00,,,0.00,0.000000,,2013-03-01 11:31:00,
2013-03-01 03:52:00,30.0,15.0,-100.00,North,358,0.0,4.0,52,0.00,,,0.00,0.000000,,2013-03-01 11:52:00,
2013-03-01 04:01:00,30.0,15.0,-100.00,North,358,0.0,4.0,52,0.00,,,0.00,0.000000,,2013-03-01 12:01:00,
2013-03-01 04:11:00,30.0,15.0,-100.00,North,358,0.0,4.0,52,0.00,,,0.00,0.000000,,2013-03-01 12:11:00,
2013-03-01 04:21:00,30.0,15.0,-100.00,North,358,0.0,4.0,52,0.00,,,0.00,0.000000,,2013-03-01 12:21:00,
2013-03-01 04:32:00,30.0,15.0,-100.00,North,358,0.0,4.0,52,0.00,,,0.00,0.000000,,2013-03-01 12:32:00,
2013-03-01 04:52:00,30.0,14.0,-100.00,North,359,0.0,6.0,51,0.00,,,0.00,0.000000,,2013-03-01 12:52:00,
2013-03-01 05:01:00,30.0,14.0,-100.00,North,359,0.0,6.0,51,0.00,,,0.00,0.000000,,2013-03-01 13:01:00,
2013-03-01 05:11:00,30.0,14.0,-100.00,North,359,0.0,6.0,51,0.00,,,0.00,0.000000,,2013-03-01 13:11:00,
2013-03-01 05:21:00,30.0,14.0,-100.00,North,359,0.0,6.0,51,0.00,,,0.00,0.000000,,2013-03-01 13:21:00,
2013-03-01 05:32:00,30.0,14.0,-100.00,North,359,0.0,6.0,51,0.00,,,0.00,0.000000,,2013-03-01 13:32:00,
2013-03-01 06:01:00,30.0,15.0,-100.00,North,4,1.0,4.0,53,0.00,,,0.00,0.000000,,2013-03-01 14:01:00,
2013-03-01 06:11:00,30.0,15.0,-100.00,North,4,1.0,4.0,53,0.00,,,0.00,0.000000,,2013-03-01 14:11:00,
2013-03-01 06:21:00,30.0,15.0,-100.00,North,4,1.0,4.0,53,0.00,,,0.00,0.000000,,2013-03-01 14:21:00,
2013-03-01 06:32:00,30.0,15.0,-100.00,North,4,1.0,4.0,53,0.00,,,0.00,0.000000,,2013-03-01 14:32:00,
2013-03-01 06:52:00,29.0,16.0,-100.00,North,350,0.0,5.0,58,0.00,,,0.00,2.000000,,2013-03-01 14:52:00,
2013-03-01 07:01:00,29.0,16.0,-100.00,North,350,0.0,5.0,58,0.00,,,0.00,2.000000,,2013-03-01 15:01:00,
2013-03-01 07:11:00,29.0,16.0,-100.00,North,350,0.0,5.0,58,0.00,,,0.00,2.000000,,2013-03-01 15:11:00,
2013-03-01 07:21:00,29.0,16.0,-100.00,North,350,0.0,5.0,58,0.00,,,0.00,2.000000,,2013-03-01 15:21:00,
2013-03-01 07:31:00,29.0,16.0,-100.00,North,350,0.0,5.0,58,0.00,,,0.00,2.000000,,2013-03-01 15:31:00,
2013-03-01 07:52:00,33.0,18.0,-100.00,SSE,156,0.0,0.0,53,0.00,,,0.00,22.000000,,2013-03-01 15:52:00,
2013-03-01 08:01:00,33.0,18.0,-100.00,SSE,156,0.0,0.0,53,0.00,,,0.00,22.000000,,2013-03-01 16:01:00,
2013-03-01 08:11:00,33.0,18.0,-100.00,SSE,156,0.0,0.0,53,0.00,,,0.00,22.000000,,2013-03-01 16:11:00,
2013-03-01 08:21:00,33.0,18.0,-100.00,SSE,156,0.0,0.0,53,0.00,,,0.00,22.000000,,2013-03-01 16:21:00,
2013-03-01 08:31:00,33.0,18.0,-100.00,SSE,156,0.0,0.0,53,0.00,,,0.00,22.000000,,2013-03-01 16:31:00,
2013-03-01 08:52:00,47.0,11.0,-100.00,WSW,248,2.0,12.0,23,-99.99,,,0.00,214.000000,,2013-03-01 16:52:00,
2013-03-01 09:01:00,47.0,11.0,-100.00,WSW,248,2.0,12.0,23,-99.99,,,0.00,214.000000,,2013-03-01 17:01:00,
2013-03-01 09:11:00,47.0,11.0,-100.00,WSW,248,2.0,12.0,23,-99.99,,,0.00,214.000000,,2013-03-01 17:11:00,
2013-03-01 09:21:00,47.0,11.0,-100.00,WSW,248,2.0,12.0,23,-99.99,,,0.00,214.000000,,2013-03-01 17:21:00,
2013-03-01 09:31:00,47.0,11.0,-100.00,WSW,248,2.0,12.0,23,-99.99,,,0.00,214.000000,,2013-03-01 17:31:00,
2013-03-01 09:52:00,51.0,10.0,-100.00,SE,134,4.0,14.0,19,0.00,,,0.00,639.000000,,2013-03-01 17:52:00,
2013-03-01 10:01:00,51.0,10.0,-100.00,SE,134,4.0,14.0,19,0.00,,,0.00,639.000000,,2013-03-01 18:01:00,
2013-03-01 10:12:00,51.0,10.0,-100.00,SE,134,4.0,14.0,19,0.00,,,0.00,639.000000,,2013-03-01 18:12:00,
2013-03-01 10:22:00,51.0,10.0,-100.00,SE,134,4.0,14.0,19,0.00,,,0.00,639.000000,,2013-03-01 18:22:00,
2013-03-01 10:31:00,51.0,10.0,-100.00,SE,134,4.0,14.0,19,0.00,,,0.00,639.000000,,2013-03-01 18:31:00,
2013-03-01 10:52:00,54.0,10.0,-100.00,ESE,115,4.0,13.0,17,0.00,,,0.00,825.000000,,2013-03-01 18:52:00,
2013-03-01 11:01:00,54.0,10.0,-100.00,ESE,115,4.0,13.0,17,0.00,,,0.00,825.000000,,2013-03-01 19:01:00,
2013-03-01 11:11:00,54.0,10.0,-100.00,ESE,115,4.0,13.0,17,0.00,,,0.00,825.000000,,2013-03-01 19:11:00,
2013-03-01 11:21:00,54.0,10.0,-100.00,ESE,115,4.0,13.0,17,0.00,,,0.00,825.000000,,2013-03-01 19:21:00,
2013-03-01 11:31:00,54.0,10.0,-100.00,ESE,115,4.0,13.0,17,0.00,,,0.00,825.000000,,2013-03-01 19:31:00,
2013-03-01 11:52:00,57.0,10.0,-100.00,East,97,3.0,13.0,15,0.00,,,0.00,947.000000,,2013-03-01 19:52:00,
2013-03-01 12:01:00,57.0,10.0,-100.00,East,97,3.0,13.0,15,0.00,,,0.00,947.000000,,2013-03-01 20:01:00,
2013-03-01 12:11:00,57.0,10.0,-100.00,East,97,3.0,13.0,15,0.00,,,0.00,947.000000,,2013-03-01 20:11:00,
2013-03-01 12:21:00,57.0,10.0,-100.00,East,97,3.0,13.0,15,0.00,,,0.00,947.000000,,2013-03-01 20:21:00,
2013-03-01 12:31:00,57.0,10.0,-100.00,East,97,3.0,13.0,15,0.00,,,0.00,947.000000,,2013-03-01 20:31:00,
2013-03-01 12:52:00,58.0,13.0,-100.00,West,276,3.0,11.0,17,0.00,,,0.00,988.000000,,2013-03-01 20:52:00,
2013-03-01 13:01:00,58.0,13.0,-100.00,West,276,3.0,11.0,17,0.00,,,0.00,988.000000,,2013-03-01 21:01:00,
2013-03-01 13:11:00,58.0,13.0,-100.00,West,276,3.0,11.0,17,0.00,,,0.00,988.000000,,2013-03-01 21:11:00,
2013-03-01 13:21:00,58.0,13.0,-100.00,West,276,3.0,11.0,17,0.00,,,0.00,988.000000,,2013-03-01 21:21:00,
2013-03-01 13:31:00,58.0,13.0,-100.00,West,276,3.0,11.0,17,0.00,,,0.00,988.000000,,2013-03-01 21:31:00,
2013-03-01 13:52:00,59.0,13.0,-100.00,East,79,2.0,12.0,16,0.00,,,0.00,946.000000,,2013-03-01 21:52:00,
2013-03-01 14:01:00,59.0,13.0,-100.00,East,79,2.0,12.0,16,0.00,,,0.00,946.000000,,2013-03-01 22:01:00,
2013-03-01 14:11:00,59.0,13.0,-100.00,East,79,2.0,12.0,16,0.00,,,0.00,946.000000,,2013-03-01 22:11:00,
2013-03-01 14:21:00,59.0,13.0,-100.00,East,79,2.0,12.0,16,0.00,,,0.00,946.000000,,2013-03-01 22:21:00,
2013-03-01 14:31:00,59.0,13.0,-100.00,East,79,2.0,12.0,16,0.00,,,0.00,946.000000,,2013-03-01 22:31:00,
2013-03-01 14:52:00,58.0,7.0,-100.00,NE,36,3.0,11.0,13,0.00,,,0.00,831.000000,,2013-03-01 22:52:00,
2013-03-01 15:01:00,58.0,7.0,-100.00,NE,36,3.0,11.0,13,0.00,,,0.00,831.000000,,2013-03-01 23:01:00,
2013-03-01 15:11:00,58.0,7.0,-100.00,NE,36,3.0,11.0,13,0.00,,,0.00,831.000000,,2013-03-01 23:11:00,
2013-03-01 15:21:00,58.0,7.0,-100.00,NE,36,3.0,11.0,13,0.00,,,0.00,831.000000,,2013-03-01 23:21:00,
2013-03-01 15:31:00,58.0,7.0,-100.00,NE,36,3.0,11.0,13,0.00,,,0.00,831.000000,,2013-03-01 23:31:00,
2013-03-01 15:52:00,57.0,10.0,-100.00,WNW,284,2.0,10.0,15,0.00,,,0.00,651.000000,,2013-03-01 23:52:00,
2013-03-01 16:01:00,57.0,10.0,-100.00,WNW,284,2.0,10.0,15,0.00,,,0.00,651.000000,,2013-03-02 00:01:00,
2013-03-01 16:11:00,57.0,10.0,-100.00,WNW,284,2.0,10.0,15,0.00,,,0.00,651.000000,,2013-03-02 00:11:00,
2013-03-01 16:21:00,57.0,10.0,-100.00,WNW,284,2.0,10.0,15,0.00,,,0.00,651.000000,,2013-03-02 00:21:00,
2013-03-01 16:31:00,57.0,10.0,-100.00,WNW,284,2.0,10.0,15,0.00,,,0.00,651.000000,,2013-03-02 00:31:00,
2013-03-01 17:01:00,51.0,9.0,-100.00,South,177,2.0,8.0,18,0.00,,,0.00,292.000000,,2013-03-02 01:01:00,
2013-03-01 17:11:00,51.0,9.0,-100.00,South,177,2.0,8.0,18,0.00,,,0.00,292.000000,,2013-03-02 01:11:00,
2013-03-01 17:21:00,51.0,9.0,-100.00,South,177,2.0,8.0,18,0.00,,,0.00,292.000000,,2013-03-02 01:21:00,
2013-03-01 17:31:00,51.0,9.0,-100.00,South,177,2.0,8.0,18,0.00,,,0.00,292.000000,,2013-03-02 01:31:00,
2013-03-01 18:01:00,46.0,10.0,-100.00,NNE,13,0.0,10.0,23,0.00,,,0.00,22.000000,,2013-03-02 02:01:00,
2013-03-01 18:11:00,46.0,10.0,-100.00,NNE,13,0.0,10.0,23,0.00,,,0.00,22.000000,,2013-03-02 02:11:00,
2013-03-01 18:21:00,46.0,10.0,-100.00,NNE,13,0.0,10.0,23,0.00,,,0.00,22.000000,,2013-03-02 02:21:00,
2013-03-01 18:31:00,46.0,10.0,-100.00,NNE,13,0.0,10.0,23,0.00,,,0.00,22.000000,,2013-03-02 02:31:00,
2013-03-01 19:01:00,45.0,12.0,-100.00,North,0,0.0,6.0,26,0.00,,,0.00,1.000000,,2013-03-02 03:01:00,
2013-03-01 19:11:00,45.0,12.0,-100.00,North,0,0.0,6.0,26,0.00,,,0.00,1.000000,,2013-03-02 03:11:00,
2013-03-01 19:21:00,45.0,12.0,-100.00,North,0,0.0,6.0,26,0.00,,,0.00,1.000000,,2013-03-02 03:21:00,
2013-03-01 19:32:00,45.0,12.0,-100.00,North,0,0.0,6.0,26,0.00,,,0.00,1.000000,,2013-03-02 03:32:00,
2013-03-01 19:52:00,36.0,18.0,-100.00,WSW,242,0.0,5.0,47,-99.99,,,0.00,0.000000,,2013-03-02 03:52:00,
2013-03-01 20:01:00,36.0,18.0,-100.00,WSW,242,0.0,5.0,47,-99.99,,,0.00,0.000000,,2013-03-02 04:01:00,
2013-03-01 20:11:00,36.0,18.0,-100.00,WSW,242,0.0,5.0,47,-99.99,,,0.00,0.000000,,2013-03-02 04:11:00,
2013-03-01 20:21:00,36.0,18.0,-100.00,WSW,242,0.0,5.0,47,-99.99,,,0.00,0.000000,,2013-03-02 04:21:00,
2013-03-01 20:31:00,36.0,18.0,-100.00,WSW,242,0.0,5.0,47,-99.99,,,0.00,0.000000,,2013-03-02 04:31:00,
2013-03-01 20:52:00,32.0,19.0,-100.00,North,10,3.0,5.0,58,0.00,,,0.00,0.000000,,2013-03-02 04:52:00,
2013-03-01 21:01:00,32.0,19.0,-100.00,North,10,3.0,5.0,58,0.00,,,0.00,0.000000,,2013-03-02 05:01:00,
2013-03-01 21:12:00,32.0,19.0,-100.00,North,10,3.0,5.0,58,0.00,,,0.00,0.000000,,2013-03-02 05:12:00,
2013-03-01 21:22:00,32.0,19.0,-100.00,North,10,3.0,5.0,58,0.00,,,0.00,0.000000,,2013-03-02 05:22:00,
2013-03-01 21:31:00,32.0,19.0,-100.00,North,10,3.0,5.0,58,0.00,,,0.00,0.000000,,2013-03-02 05:31:00,
2013-03-01 22:01:00,30.0,20.0,-100.00,NNE,12,3.0,5.0,65,0.00,,,0.00,0.000000,,2013-03-02 06:01:00,
2013-03-01 22:11:00,30.0,20.0,-100.00,NNE,12,3.0,5.0,65,0.00,,,0.00,0.000000,,2013-03-02 06:11:00,
2013-03-01 22:21:00,30.0,20.0,-100.00,NNE,12,3.0,5.0,65,0.00,,,0.00,0.000000,,2013-03-02 06:21:00,
2013-03-01 22:31:00,30.0,20.0,-100.00,NNE,12,3.0,5.0,65,0.00,,,0.00,0.000000,,2013-03-02 06:31:00,
2013-03-01 22:52:00,29.0,19.0,-100.00,North,7,2.0,5.0,67,0.00,,,-99.99,0.000000,,2013-03-02 06:52:00,
2013-03-01 23:01:00,29.0,19.0,-100.00,North,7,2.0,5.0,67,0.00,,,-99.99,0.000000,,2013-03-02 07:01:00,
2013-03-01 23:11:00,29.0,19.0,-100.00,North,7,2.0,5.0,67,0.00,,,-99.99,0.000000,,2013-03-02 07:11:00,
2013-03-01 23:21:00,29.0,19.0,-100.00,North,7,2.0,5.0,67,0.00,,,-99.99,0.000000,,2013-03-02 07:21:00,
2013-03-01 23:32:00,29.0,19.0,-100.00,North,7,2.0,5.0,67,0.00,,,-99.99,0.000000,,2013-03-02 07:32:00,
2013-03-01 23:52:00,28.0,19.0,-100.00,North,10,1.0,4.0,69,0.00,,,0.00,0.000000,,2013-03-02 07:52:00,